Terug naar catalogus

USA 522

ActiefMilitairLEO
NORAD 63597·PAYLOAD·🇺🇸 United States

Gelanceerd Apr 16, 2025 vanaf Vandenberg Space Force Base

Loading…

Volgende Passages (komende 24 uur)

TLE

VerouderdSource: Mike McCants

Epoch: Nov 13, 2025, 04:44 UTC

1 63597U 25077B   25317.19739246 0.00000000  00000-0  00000-0 0    03
2 63597  63.3855  42.8714 0020000 291.6239  68.3761 13.39285860    08

Volg USA 522 in realtime met AllMySat

Download on the App Store